AO-07 1 07530U 74089B 26170.47889307 -.00000047 00000-0 -14457-5 0 9994 2 07530 101.9899 183.7495 0012599 125.8414 33.8516 12.53698153360808 UO-11 1 14781U 84021B 26170.36922180 .00000988 00000-0 10609-3 0 9997 2 14781 97.8059 135.9194 0007850 165.3072 194.8376 14.90787799257459 LO-19 1 20442U 90005G 26170.55409945 .00000068 00000-0 40989-4 0 9991 2 20442 98.8849 192.4250 0011244 193.9375 166.1500 14.34123783902738 AO-27 1 22825U 93061C 26170.72690550 .00000069 00000-0 43200-4 0 9996 2 22825 98.6880 238.1396 0009545 93.2451 266.9824 14.30942876707363 FO-29 1 24278U 96046B 26170.30734483 -.00000013 00000-0 19676-4 0 9994 2 24278 98.5238 18.8890 0350921 90.9460 273.1898 13.53274520473455 GO-32 1 25397U 98043D 26170.59313746 .00000028 00000-0 32334-4 0 9993 2 25397 99.0068 163.4125 0001179 158.0468 202.0760 14.24428772451673 ISS 1 25544U 98067A 26170.83410214 .00008787 00000-0 16559-3 0 9998 2 25544 51.6327 286.9925 0004571 206.3214 153.7542 15.49322400572160 NO-44 1 26931U 01043C 26170.46421187 .00000069 00000-0 56710-4 0 9996 2 26931 67.0503 238.3826 0006071 264.6525 95.3885 14.31956812290773 SO-50 1 27607U 02058C 26170.85258546 .00000740 00000-0 10489-3 0 9992 2 27607 64.5513 120.7383 0075162 261.9782 97.2791 14.83051819264858 CO-55 1 27844U 03031E 26170.56610412 .00000202 00000-0 10624-3 0 9993 2 27844 98.6736 179.0951 0009689 171.1603 188.9749 14.24336935192018 RS-22 1 27939U 03042A 26170.86919330 .00000561 00000-0 94697-4 0 9995 2 27939 98.3468 355.3034 0009932 260.1421 207.0533 14.73470566215946 CO-65 1 32785U 08021C 26170.90038654 .00004758 00000-0 30099-3 0 9995 2 32785 97.8277 152.3753 0009494 30.2474 329.9300 15.09473052985609 CO-66 1 32791U 08021J 26170.55102446 .00014814 00000-0 46963-3 0 9995 2 32791 97.7522 168.5617 0000744 349.7207 10.4018 15.32817335987654 RS-30 1 32953U 08025A 26170.83471623 -.00000059 00000-0 -49497-3 0 9999 2 32953 82.5040 353.7925 0018759 307.8284 52.1097 12.43179151820029 SRMSAT 1 37841U 11058D 26170.35988047 .00000354 00000-0 48474-4 0 9991 2 37841 19.9728 46.3158 0011744 227.6220 288.1945 14.11575972758128 ZACUBE-1 1 39417U 13066B 26170.87353023 .00002333 00000-0 18363-3 0 9992 2 39417 97.8072 133.2244 0041142 238.4209 121.2995 15.01200695681135 Delfi-N3xt 1 39428U 13066N 26170.72118394 .00004584 00000-0 40152-3 0 9999 2 39428 97.8334 91.0298 0073825 196.9547 162.9206 14.95098093675009 GOMX-1 1 39430U 13066Q 26170.84159464 .00001463 00000-0 22432-3 0 9992 2 39430 97.6476 11.1364 0130104 69.1471 292.3612 14.69468315670301 LO-74 1 39440U 13066AA 26170.74260953 .00004224 00000-0 39108-3 0 9994 2 39440 97.8909 119.7314 0058222 20.8398 339.5176 14.93781455677370 AO-73 1 39444U 13066AE 26170.37665816 .00004964 00000-0 30928-3 0 9996 2 39444 97.8280 141.8681 0035835 193.1795 166.8500 15.09511616679999 DTUSAT-2 1 40030U 14033W 26170.54953937 .00005935 00000-0 32126-3 0 9998 2 40030 98.0865 168.4264 0006872 216.2454 143.8312 15.15041809653047 LILACSAT-2 1 40908U 15049K 26170.85213453 .00014346 00000-0 24404-3 0 9992 2 40908 97.4640 207.7953 0005683 232.3883 127.6853 15.51517172596161 Horyu-4 1 41340U 16012D 26170.87435473 .00470986 86172-4 95819-3 0 9996 2 41340 30.9842 59.2608 0006394 289.3268 70.6702 15.98255444571248 Lapan A3 1 41603U 16040E 26170.86719319 .00002695 00000-0 86474-4 0 9990 2 41603 97.1491 166.9248 0010561 16.7454 343.4135 15.33118833555221 CAS-2T 1 41847U 16066G 26170.73400531 .00001315 00000-0 19133-3 0 9992 2 41847 98.3821 246.4413 0342865 121.7773 241.7303 14.44701664505161 TechnoSat 1 42829U 17042E 26170.37690048 .00002893 00000-0 20744-3 0 9994 2 42829 97.4295 327.9510 0019112 87.3481 272.9933 15.04974319487035 AO-91 1 43017U 17073E 26170.58926228 .00006334 00000-0 27795-3 0 9990 2 43017 97.4695 37.7543 0149369 320.8671 38.1830 15.12745467465757 S-Net D 1 43186U 18014G 26170.77101067 .00003833 00000-0 19898-3 0 9996 2 43186 97.5356 75.5454 0008688 22.2001 337.9606 15.16692471459156 S-Net B 1 43187U 18014H 26170.78251391 .00003755 00000-0 19518-3 0 9996 2 43187 97.5363 75.5433 0009173 17.0385 343.1155 15.16663327459155 S-Net A 1 43188U 18014J 26170.30805269 .00003906 00000-0 20267-3 0 9995 2 43188 97.5374 75.2812 0009104 19.2702 340.8874 15.16697493459082 S-Net C 1 43189U 18014K 26170.78640308 .00003783 00000-0 19661-3 0 9998 2 43189 97.5391 75.8316 0010184 9.2884 350.8535 15.16655510457703 Ten-Koh 1 43677U 18084G 26170.52046956 .00001365 00000-0 10646-3 0 9996 2 43677 98.0771 2.9828 0011515 107.4797 252.7687 15.02949767416512 PO-101 1 43678U 18084H 26170.83737839 .00002089 00000-0 17098-3 0 9990 2 43678 98.1185 7.1604 0012724 161.6298 198.5387 15.00462775416615 QO-100 1 43700U 18090A 26170.75551398 .00000138 00000-0 00000 0 0 9992 2 43700 0.0135 53.5670 0001779 70.9931 81.1783 1.00272144 27709 MinXSS-2 1 43758U 18099A 26170.48513653 .00032882 00000-0 65019-3 0 9992 2 43758 97.4528 246.8370 0006838 245.1261 114.9278 15.47028167414484 AO-95 1 43770U 18099N 26170.69934198 .00009300 00000-0 35595-3 0 9995 2 43770 97.4377 230.9364 0007708 348.2880 11.8178 15.26755639413601 SNUSat 2 1 43782U 18099AA 26170.10860050 .00006386 00000-0 28361-3 0 9993 2 43782 97.4055 223.4630 0008556 290.4235 69.6082 15.21860979413327 SnugLite 1 43784U 18099AC 26170.10932955 .00009325 00000-0 35226-3 0 9993 2 43784 97.3860 224.3705 0001185 273.7878 86.3226 15.27212758413613 ITASat 1 1 43786U 18099AE 26170.65654309 .00004921 00000-0 23743-3 0 9997 2 43786 97.4023 222.1190 0011828 351.5334 8.5699 15.19082149413281 EAGLET 1 1 43790U 18099AJ 26170.69834225 .00003186 00000-0 18414-3 0 9994 2 43790 97.4228 220.3006 0010408 345.2076 14.8849 15.12954488412716 ESEO 1 43792U 18099AL 26170.64156731 .00001426 00000-0 10660-3 0 9990 2 43792 97.3977 207.9246 0011018 331.8257 28.2372 15.04256096412176 JO-97 1 43803U 18099AX 26170.70553725 .00013869 00000-0 42740-3 0 9992 2 43803 97.4125 233.5484 0004492 250.8022 109.2735 15.33718827414017 Suomi 100 1 43804U 18099AY 26170.69405693 .00010066 00000-0 36556-3 0 9995 2 43804 97.4181 231.0783 0008434 267.8657 92.1617 15.28463082413806 ISAT 1 43879U 18111D 26170.27163991 .00088192 00000-0 87128-3 0 9994 2 43879 97.5873 105.6536 0001451 154.5735 205.5596 15.65612407411497 UWE-4 1 43880U 18111E 26170.73909039 .00028000 00000-0 56934-3 0 9991 2 43880 97.5852 99.2477 0005068 330.7949 29.3015 15.46259003411172 Sparrow 1 43881U 18111F 26170.35519328 .00149917 00000-0 99545-3 0 9994 2 43881 97.6108 111.4013 0004611 115.7732 244.4008 15.75013915411719 Prox-1 1 44339U 19036A 26170.46715593 .00011551 00000-0 11210-2 0 9998 2 44339 23.9947 99.0214 0005836 63.0188 297.0907 14.90654850373810 Taurus 1 1 44530U 19059C 26170.82562954 .00005298 00000-0 84987-3 0 9990 2 44530 98.6423 335.8163 0007320 306.6915 53.3617 14.72119598359033 TO-108 1 44881U 19093C 26170.80456742 .00000167 00000-0 24813-4 0 9995 2 44881 97.7528 242.9728 0015040 79.1516 281.1392 14.86520390351809 RS-44 1 44909U 19096E 26170.50699800 .00000010 00000-0 -97910-5 0 9997 2 44909 82.5220 338.1631 0218257 138.7616 223.0205 12.79748873302644 SALSAT 1 46495U 20068K 26170.82728722 .00006419 00000-0 22493-3 0 9991 2 46495 97.8854 174.0526 0007893 297.0230 63.0203 15.29831081315760 CSS (TIANHE-1) 1 48274U 21035A 26170.72834612 .00019835 00000-0 23343-3 0 9999 2 48274 41.4696 306.5363 0007350 99.2772 260.8898 15.60907257293562 CUTE 1 49263U 21088D 26170.51114254 .00134950 90676-5 37481-3 0 9993 2 49263 97.4176 270.0311 0007475 225.0755 134.9914 15.93770363262929 TeikyoSat 4 1 49396U 21102B 26170.63962177 .00001431 00000-0 92997-4 0 9993 2 49396 97.3669 200.0277 0010361 286.9508 73.0586 15.09515149253098 Z-Sat 1 49399U 21102E 26170.83425106 .00003158 00000-0 15693-3 0 9999 2 49399 97.3318 206.0771 0015184 234.4088 125.5732 15.18278498253848 KOSEN 1 1 49402U 21102H 26170.56650128 .00005790 00000-0 22163-3 0 9992 2 49402 97.3181 212.6776 0013460 191.8162 168.2764 15.26861896254381 HO-113 1 50466U 21131B 26170.83137712 .00000450 00000-0 15264-3 0 9997 2 50466 98.4983 263.2068 0005403 90.7607 269.4201 14.41359619235492 SNUGLITE 2 1 52899U 22065F 26170.83258690 .00000699 00000-0 14148-3 0 9990 2 52899 98.2206 315.6583 0007838 25.3713 334.7872 14.64351649211382 UmKA 1 (RS40S) 1 57172U 23091G 26170.85733329 .00004983 00000-0 22835-3 0 9990 2 57172 97.5046 229.5444 0014324 109.3771 250.9014 15.20843546164412 CubeBel-2 (EU11S) 1 57175U 23091K 26170.86674250 .00011284 00000-0 39995-3 0 9998 2 57175 97.5046 234.1078 0011286 106.7059 253.5420 15.29206882164712 RS-38S 1 57189U 23091Z 26170.81850955 .00014098 00000-0 40266-3 0 9995 2 57189 97.5087 240.3566 0008105 69.9278 290.2837 15.36095446165094 SONATE-2 1 59112U 24043Q 26170.38513632 .00035474 00000-0 45828-3 0 9991 2 59112 97.5537 320.9158 0007143 188.0523 172.0619 15.58855561128237 GRBBeta 1 60237U 24128C 26170.54292137 .00002191 00000-0 15906-3 0 9991 2 60237 61.9881 208.0011 0040353 135.1213 225.3155 15.06650427106620 Curium One 1 60242U 24128H 26170.55006776 .00005069 00000-0 29687-3 0 9998 2 60242 61.9767 197.4059 0039538 131.2598 229.1915 15.12534401106815 ROBUSTA-3A 1 60243U 24128J 26170.38384092 .00004256 00000-0 25697-3 0 9994 2 60243 61.9845 200.4756 0041136 128.3668 232.1135 15.11694010106757 CatSat 1 60246U 24125J 26170.57918614 .00052457 00000-0 66739-3 0 9996 2 60246 97.2082 23.1102 0022471 170.9194 189.2474 15.58897637107769 HYPERVIEW-1G (RS66S) 1 61772U 24199AP 26170.72916919 .00128823 00000-0 80552-3 0 9995 2 61772 97.2863 50.5774 0004436 209.3810 150.7207 15.76459253135073 AO-123 1 61781U 24199AY 26170.83653714 .00006293 00000-0 18314-3 0 9991 2 61781 97.2994 39.4830 0012120 303.3998 56.6086 15.35707553134339 JINJUSat 1B 1 63210U 25052A 26170.69073646 .00013525 00000-0 41876-3 0 9998 2 63210 97.3998 67.4488 0005436 85.5087 274.6776 15.33568631 70486 NUSHSAT 1 1 63211U 25052B 26170.66525500 .00017299 00000-0 49430-3 0 9993 2 63211 97.3976 67.9977 0005175 88.4520 271.7316 15.36051533 70529 TEVEL2-4 1 63213U 25052D 26170.65994272 .00015774 00000-0 47105-3 0 9993 2 63213 97.3895 67.0555 0004935 98.3582 261.8220 15.34683062 70491 TEVEL2-5 1 63214U 25052E 26170.68072245 .00014833 00000-0 44561-3 0 9992 2 63214 97.3892 67.0230 0004894 99.9243 260.2552 15.34509052 70491 TEVEL2-6 1 63215U 25052F 26170.69311061 .00014726 00000-0 44292-3 0 9998 2 63215 97.3899 67.0201 0004758 100.3374 259.8406 15.34473954 70491 TEVEL2-1 1 63217U 25052H 26170.65777598 .00014677 00000-0 44898-3 0 9994 2 63217 97.3870 66.6064 0004839 108.6625 251.5144 15.33935464 70478 TEVEL2-3 1 63218U 25052J 26170.65232947 .00014905 00000-0 45510-3 0 9995 2 63218 97.3873 66.6229 0004839 109.1056 251.0711 15.33991826 70478 TEVEL2-2 1 63219U 25052K 26170.65807553 .00014696 00000-0 44945-3 0 9995 2 63219 97.3874 66.6088 0004844 109.6610 250.5156 15.33944539 70476 TEVEL2-9 1 63237U 25052AD 26170.70401007 .00013163 00000-0 42841-3 0 9996 2 63237 97.3933 66.0247 0007998 123.7916 236.4088 15.31960885 70413 TEVEL2-7 1 63238U 25052AE 26170.68007201 .00012773 00000-0 41965-3 0 9994 2 63238 97.3935 65.9159 0008059 124.2734 235.9272 15.31663206 70404 TEVEL2-8 1 63239U 25052AF 26170.68834909 .00012538 00000-0 41221-3 0 9992 2 63239 97.3937 65.9009 0008075 124.5955 235.6049 15.31647647 70407 SPIRONE 1 66657U 25274H 26170.73381406 .00001606 00000-0 15757-3 0 9999 2 66657 97.7480 99.9885 0012428 13.6788 346.4766 14.93552508 30602 K-HERO 1 66660U 25274L 26170.73769810 .00001628 00000-0 15799-3 0 9992 2 66660 97.7486 100.1552 0014392 16.7711 343.3982 14.93969599 30619 SNUGLITE-III DURI 1 66661U 25274M 26170.72540343 .00001073 00000-0 10582-3 0 9999 2 66661 97.7484 100.1638 0015055 17.4132 342.7601 14.94007870 30612 SAKHACUBE-CHOLBON 1 67290U 25313AU 26170.45696629 .00007736 00000-0 31324-3 0 9990 2 67290 97.3931 245.4637 0008608 357.2855 2.8334 15.24922033 26320 RS95S (QMR-KWT-2) 1 67291U 25313AV 26170.70536872 .00011199 00000-0 43324-3 0 9993 2 67291 97.3925 245.8896 0007987 353.2594 6.8536 15.26346044 26377 Ten-Koh2 1 68261U 25241B 26170.57332374 .00004570 00000-0 20013-3 0 9992 2 68261 51.6701 308.2737 0005822 148.7075 211.4251 15.23927187 15270 JACK-002 1 68417U 26067B 26170.33473549 .00005090 00000-0 24357-3 0 9999 2 68417 97.4570 128.8987 0000104 158.9108 201.2131 15.19415762 12273 DISCO 2 1 68431U 26067R 26170.35635513 .00007217 00000-0 34701-3 0 9995 2 68431 97.4604 128.9084 0002586 39.9277 320.2147 15.19101786 12274 HADES-SA (SpinnyONE) 1 68446U 26067AG 26170.32968578 .00015238 00000-0 72719-3 0 9991 2 68446 97.4409 128.5939 0009373 76.5960 283.6319 15.19120746 12253 PARUS-6U1 1 68456U 26067AS 26170.82598963 .00004979 00000-0 25130-3 0 9999 2 68456 97.4554 129.1487 0007325 64.9234 295.2760 15.17540003 12338 SAL-E 1 68458U 26067AU 26170.35951197 .00006955 00000-0 34719-3 0 9990 2 68458 97.4481 128.6242 0007861 73.6446 286.5652 15.17782405 12268 FSI-SAT 2 1 68792U 26088A 26170.34433732 .00003525 00000-0 23982-3 0 9993 2 68792 97.5081 319.5492 0016060 99.9877 260.3164 15.06852778 8615 OrigamiSat 2 1 68795U 26088D 26170.35079979 .00010496 00000-0 66938-3 0 9999 2 68795 97.5081 319.6980 0016196 74.3270 285.9745 15.08780628 8620 ARICA 2 1 68796U 26088E 26170.35052643 .00003637 00000-0 23686-3 0 9991 2 68796 97.5072 319.6863 0017030 73.5351 286.7748 15.08444194 8627 WASEDA-SAT-ZERO-II 1 68797U 26088F 26170.34593023 .00005043 00000-0 32485-3 0 9993 2 68797 97.5068 319.6913 0016822 73.4186 286.8888 15.08665392 8623 MANGARO-II-Piscus 1 68798U 26088G 26170.86674025 .00002792 00000-0 18071-3 0 9996 2 68798 97.5078 320.2303 0020528 74.0284 286.3204 15.08802150 8701 IO-86 1 40931U 25360.30710720 .00000000 00000-0 12800-3 0 00 2 40931 6.0006 332.5373 0012733 338.8432 8.1437 14.79075515 01 LILIUM-4 1 71922C 26067AC 26089.50133053 -.00014632 00000 0 -74472-3 0 04 2 71922 97.4497 49.1617 0004341 5.9603 355.7042 15.16896692 16